Regional Weather Roundup
Issued by NWS Jackson, KY

Home | Current Version | Previous Version | Text Only | Print | Product List | Glossary On
Versions: 1 2 3 4 5 6 7 8 9 10 11 12 13 14 15 16 17 18 19 20 21 22 23 24 25 26 27 28 29 30 31 32 33 34 35 36 37 38 39 40 41 42 43 44 45 46 47 48 49 50
000
ASUS43 KJKL 191310
RWRJKL

EAST KENTUCKY HOURLY WEATHER ROUNDUP
NATIONAL WEATHER SERVICE JACKSON KY
800 AM EST SUN FEB 19 2017

NOTE: "FAIR" INDICATES FEW OR NO CLOUDS BELOW 12,000 FEET WITH
NO SIGNIFICANT WEATHER AND/OR OBSTRUCTIONS TO VISIBILITY.

* THESE REPORTS ARE NOT UNDER NWS QUALITY CONTROL AND MAY NOT
  REPORT WEATHER SUCH AS PRECIPITATION AND FOG.

KYZ079-080-083-085-087-088-110-112-115-119-120-191400
...EASTERN KENTUCKY...

CITY           SKY/WX    TMP DP  RH WIND       PRES   REMARKS
JACKSON        CLOUDY    47  44  90 SW3       30.07R
LONDON         FOG       45  43  93 CALM      30.07R VSB<1/4
SOMERSET*      CLOUDY    45  45 100 CALM      30.10R FOG
MONTICELLO*    CLOUDY    43  42  97 VRB7      30.10R FOG
WILLIAMSBURG*  CLOUDY    45  45 100 CALM      30.07R VSB<1/4
MIDDLESBORO*   CLOUDY    46  46 100 CALM      30.08R FOG
HARLAN APT*    CLOUDY    46  45  93 CALM      30.07R
PIKE CO APT*   CLOUDY    46  46 100 CALM      30.07R FOG
BIG SANDY APT* CLOUDY    47  47 100 CALM      30.07R FOG
MOREHEAD APT*  CLOUDY    48  45  87 CALM      30.07R
ASHLAND*       CLOUDY    46  45  93 CALM      30.04R VSB 1/2
$$

KYZ035-036-041-042-044-050-067-078-099-191400
...CENTRAL KENTUCKY...

CITY           SKY/WX    TMP DP  RH WIND       PRES   REMARKS
MT STERLING*   CLOUDY    46  45  93 W5        30.08R
FLEMING/MASON* CLOUDY    46  46  97 SW6       30.07R
DANVILLE*      CLOUDY    45  43  93 CALM      30.08R FOG
LEXINGTON      CLOUDY    48  45  89 W5        30.07R
FRANKFORT      CLOUDY    49  45  86 W3        30.05R FOG
LOUISVILLE     CLOUDY    51  48  89 S5        30.06R FOG
LEBANON*       CLOUDY    48  46  93 CALM      30.08R
GLASGOW*       CLOUDY   N/A N/A N/A CALM      30.08R HAZE
BOWLING GREEN  CLOUDY    48  46  93 CALM      30.08R FOG
$$

KYZ091>093-OHZ055-061-077-WVZ005-015-034-035-042-191400
...SOUTHERN OHIO/WEST VIRGINIA...

CITY           SKY/WX    TMP DP  RH WIND       PRES   REMARKS
COVINGTON      CLOUDY    48  46  93 W8        30.04R FOG
COLUMBUS       CLOUDY    46  43  89 S3        30.00R FOG
DAYTON         CLOUDY    45  44  97 W7        30.03R FOG
WILMINGTON     CLOUDY    46  45  96 W12       30.01R FOG
HUNTINGTON     CLOUDY    49  46  90 CALM      30.05R FOG
CHARLESTON     CLOUDY    48  45  89 W6        30.05R
PINEVILLE*     CLOUDY    46  43  88 MISG      30.10R FOG
BECKLEY        CLOUDY    43  42  97 W8        30.03R FOG
BLUEFIELD      CLOUDY    41  40  96 W6        30.04R FOG
LOGAN CO APT*  FOG       46  46 100 W6        30.05R VSB 3/4
$$

VAZ002-007-008-TNZ017-027-036-066-071-191400
...SOUTHWEST VIRGINIA/EAST TENNESSEE...

CITY           SKY/WX    TMP DP  RH WIND       PRES   REMARKS
WISE*          CLOUDY    45  45 100 CALM      30.07R
JONESVILLE*    PTSUNNY   46  46 100 CALM      30.09R FOG
ABINGDON*      CLOUDY    47  47 100 W5        30.06R FOG
BRISTOL        CLOUDY    48  47  96 CALM      30.08R FOG
MORRISTOWN*    CLOUDY    50  48  93 CALM      30.06R FOG
SEVIERVILLE*   CLOUDY    48  46  93 CALM      30.07R
KNOXVILLE      FOG       50  48  93 CALM      30.07R VSB 3/4
LAFOLLETTE*    FOG       48  48 100 CALM      30.09S VSB 3/4
OAK RIDGE      CLOUDY    50  48  93 CALM      30.08R FOG
CROSSVILLE     CLOUDY    48  47  96 NW3       30.07R FOG
NASHVILLE      MOCLDY    45  44  97 S3        30.08R FOG
$$

...KEY TO REMARKS...
VSB - VISIBILITY IN MILES
WCI - WIND CHILL INDEX
HX  - HEAT INDEX

$$



USA.gov is the U.S. government's official web portal to all federal, state and local government web resources and services.